GFSNGP_sfc_wetblb_132.txt.gz
Wetbulb
39.97 43.98 43.68 43.48 44.27 43.81 41.14 39.68 39.79 39.83 41.19 43.67 46.52 51.15 52.79 54.87 54.69 56.01 56.72 57.12 56.62 56.28 56.12 56.25 56.24 56.86 57.15 57.27 57.52 57.18 57.24 57.66 58.30 59.75 60.61 60.75 60.55 60.98 61.87 62.06 62.16 62.33 62.29 62.23
38.00 44.27 44.36 43.76 45.15 45.26 44.29 42.73 42.10 41.52 41.16 45.25 47.45 53.23 53.56 54.48 54.71 55.63 56.69 57.06 57.05 56.96 56.66 56.30 56.77 56.99 56.86 56.50 56.22 56.78 56.45 56.22 58.48 59.76 59.85 59.96 60.33 61.06 61.43 61.99 62.26 62.40 61.90 61.87
36.20 41.85 42.77 39.39 43.74 44.69 44.44 44.45 44.31 40.92 44.68 48.41 50.59 52.37 54.17 53.81 55.31 55.58 56.19 57.04 56.86 56.91 56.70 56.59 56.57 56.67 55.51 55.49 56.54 56.31 55.08 55.33 56.51 57.42 58.39 59.55 60.79 61.37 61.21 61.45 60.58 60.52 61.73 62.01
35.44 38.25 32.67 42.08 46.55 47.70 46.40 47.58 46.55 46.40 47.53 49.53 51.59 52.95 53.27 54.33 55.37 55.82 56.49 56.88 57.06 56.52 56.64 56.88 57.28 56.31 56.05 56.24 55.61 54.75 54.41 54.36 55.47 57.27 58.02 59.73 60.76 61.05 61.33 59.98 59.79 60.73 61.83 62.52
36.56 34.66 39.10 44.40 47.43 46.19 45.68 44.89 50.85 49.94 51.93 52.84 53.80 54.19 53.70 56.03 56.45 56.99 56.90 57.28 57.61 57.78 57.69 57.26 56.37 56.28 55.38 54.80 53.86 53.53 53.78 54.10 56.53 58.23 58.47 59.75 60.34 61.01 60.67 59.67 58.59 62.05 62.31 63.32
35.16 34.59 34.16 41.96 48.66 50.57 50.15 40.63 50.96 52.37 51.03 52.08 52.23 47.66 50.34 56.06 57.85 57.62 58.15 57.78 57.73 57.73 57.33 56.27 56.16 55.77 54.13 53.08 52.50 52.46 53.75 55.27 57.55 59.11 59.95 59.67 60.55 61.46 60.86 60.44 57.88 60.86 62.50 62.51
35.74 35.03 38.47 44.97 49.49 50.68 40.38 41.79 47.91 52.53 51.93 51.84 51.03 51.65 53.28 55.34 56.54 57.81 57.64 57.97 58.26 57.50 56.43 55.88 56.14 54.80 53.39 53.53 53.08 54.25 55.36 57.14 59.25 59.94 59.80 60.68 60.92 60.86 61.07 60.68 58.32 59.20 57.82 59.11
34.85 33.38 34.53 49.26 49.99 44.82 45.62 49.18 50.71 52.04 52.79 53.69 53.12 53.44 53.86 54.74 55.24 57.24 57.96 58.15 58.15 56.98 56.05 56.12 56.10 55.18 54.65 54.17 55.52 56.30 57.04 57.65 58.36 58.35 59.50 60.30 58.46 58.53 58.71 59.70 57.20 56.29 56.69 56.37
39.26 38.68 45.57 48.16 48.46 50.67 50.70 50.29 51.97 51.88 53.44 54.44 53.27 53.28 54.25 55.24 55.95 56.53 57.92 58.25 58.44 56.91 56.26 56.21 56.26 55.87 55.30 56.17 56.72 57.44 57.12 57.30 58.00 57.50 58.32 59.05 57.76 56.73 56.87 56.89 57.39 55.95 54.93 54.87
40.10 43.46 45.96 48.49 49.29 49.47 51.33 51.13 52.92 54.43 54.57 54.61 54.12 54.14 54.69 55.33 55.70 57.41 58.19 58.16 57.94 56.48 55.79 55.55 55.71 56.62 56.25 56.90 57.38 57.50 56.46 57.00 57.73 57.09 57.10 57.77 57.31 56.57 56.17 54.35 54.58 56.11 54.29 53.46
40.01 43.24 45.01 47.63 48.76 49.31 51.41 52.84 52.15 52.34 54.39 54.22 53.92 53.65 54.64 55.47 56.55 57.21 58.05 58.00 57.29 56.17 55.48 55.47 56.30 55.47 56.57 57.48 57.66 56.60 56.10 56.76 57.37 57.22 56.57 57.12 57.93 56.40 55.94 52.84 49.24 51.30 53.60 53.33
38.89 42.77 42.78 43.94 48.04 50.56 50.68 50.70 51.67 51.63 51.95 53.86 53.67 53.65 54.47 54.22 55.64 57.17 57.13 56.60 55.44 55.22 55.30 55.74 56.12 55.84 56.36 58.34 57.18 55.83 55.94 56.54 55.39 54.94 54.68 55.87 58.73 58.54 50.22 47.21 44.12 42.19 42.00 46.08
42.19 43.86 44.93 47.37 48.46 49.79 49.86 50.16 51.79 52.32 52.26 52.36 54.82 54.78 54.62 53.65 54.32 54.49 56.73 56.34 56.18 56.04 56.06 56.58 55.51 55.36 57.74 58.20 57.18 55.79 56.00 56.46 55.26 52.89 54.84 53.55 56.48 57.58 56.15 53.08 44.99 43.13 42.95 42.57
43.27 43.47 42.40 45.37 45.19 47.96 48.27 49.70 51.37 52.59 52.87 52.87 53.48 54.31 54.49 54.49 55.23 55.22 55.89 57.43 57.45 56.75 56.66 56.36 55.64 56.49 57.87 56.09 56.95 56.56 56.35 52.62 55.64 54.32 54.50 54.11 54.17 54.23 53.30 55.44 56.45 54.94 49.23 46.26
43.70 44.45 44.38 45.87 45.76 46.59 48.48 49.52 50.01 50.10 50.67 51.67 52.83 52.31 53.87 55.15 55.47 56.40 57.98 57.83 57.01 56.60 56.58 56.06 55.86 57.02 56.84 56.73 56.71 56.21 55.90 56.96 55.96 55.33 55.27 54.25 55.00 54.58 53.67 55.49 54.95 54.59 55.25 51.65
44.37 44.28 44.22 44.06 45.39 46.67 48.43 50.77 49.99 49.80 50.66 52.33 52.44 54.05 55.53 56.46 56.70 57.04 56.20 56.60 55.91 55.47 56.72 56.02 56.56 57.51 57.47 57.60 56.80 55.72 57.07 54.41 54.50 55.35 55.39 54.70 54.54 54.36 54.56 54.79 54.59 53.94 52.76 52.44
43.41 43.56 43.60 43.40 45.78 47.67 48.98 50.46 50.65 51.66 51.74 53.24 55.04 55.64 56.38 56.69 55.44 55.22 55.75 56.57 56.65 56.53 56.62 56.70 56.65 57.21 56.00 55.44 55.61 54.09 54.25 54.54 53.37 52.14 51.86 53.43 54.60 54.53 55.01 54.51 52.98 52.51 51.39 49.20
48.25 48.96 48.74 45.85 47.15 48.33 49.52 51.39 51.75 52.08 52.99 54.49 55.18 55.61 55.36 55.24 54.94 54.11 54.49 55.81 55.37 55.77 56.65 57.45 58.22 56.75 54.99 55.28 55.25 53.27 51.70 50.37 50.34 50.84 52.18 52.70 52.95 53.78 54.12 53.43 53.00 52.04 51.92 50.97
51.23 50.16 48.03 47.36 48.98 50.59 51.02 51.82 52.89 53.38 54.22 55.18 54.55 53.87 53.85 53.66 53.87 54.18 55.33 54.95 54.16 54.26 54.90 56.41 58.41 57.06 52.96 55.17 53.92 50.51 48.81 48.28 47.80 48.21 49.27 49.48 49.77 49.74 51.15 51.18 51.22 51.45 51.41 51.05
51.36 52.04 52.68 53.14 54.57 53.39 51.65 53.70 53.92 54.49 55.22 55.49 54.94 53.61 53.36 53.69 53.89 54.34 54.97 53.25 53.53 54.76 53.90 54.06 52.71 50.99 53.19 53.01 49.87 47.38 46.69 46.72 46.53 46.73 46.78 46.25 46.15 45.33 45.23 42.67 44.96 45.78 47.28 48.52
50.59 52.84 53.30 52.56 52.71 53.76 54.29 55.18 54.27 54.08 54.63 55.10 53.47 52.99 53.15 54.75 55.27 52.94 51.15 49.15 47.68 49.18 48.37 49.15 49.58 48.31 47.14 46.36 46.12 45.25 45.33 45.11 44.06 43.76 44.35 44.25 44.22 43.90 43.83 43.71 43.83 43.68 43.69 43.90
53.18 52.13 52.06 52.73 52.95 53.39 54.87 55.71 55.91 54.96 55.44 55.14 54.83 54.70 53.00 51.15 48.74 46.64 47.24 45.56 45.81 46.30 47.10 46.77 47.21 48.00 47.10 46.76 44.97 44.62 44.35 44.39 43.76 44.08 43.73 43.64 43.63 43.02 42.84 43.12 43.03 43.06 42.98 43.20
52.45 53.23 52.80 52.52 52.73 52.87 53.42 53.48 52.54 55.59 55.63 55.35 52.92 52.03 49.83 47.88 46.39 44.13 42.26 44.84 45.05 45.96 46.01 46.71 47.94 47.85 46.94 44.61 44.43 44.16 43.94 43.40 42.88 42.93 42.90 42.95 42.82 42.92 42.89 42.83 42.77 42.71 42.78 42.80
53.18 51.05 49.58 50.87 52.27 51.14 50.26 50.72 50.42 50.50 50.22 50.40 49.57 49.44 47.77 45.80 45.64 46.60 45.90 45.39 45.00 44.22 44.78 45.71 45.83 45.93 44.80 44.06 43.59 43.45 43.18 42.79 42.31 42.25 41.99 40.18 42.45 42.48 42.34 42.08 41.71 41.91 41.99 41.19
52.40 52.35 52.31 51.16 49.83 49.17 49.71 50.15 50.28 50.58 49.94 48.70 47.05 47.04 47.74 46.66 44.67 44.25 44.13 44.34 44.20 44.48 44.94 45.75 45.32 44.48 43.29 43.10 43.19 42.94 42.72 42.64 42.58 42.79 42.52 41.84 40.87 40.48 40.80 40.92 40.38 40.31 40.46 40.25
50.49 51.48 50.95 50.03 49.37 49.49 48.96 49.66 48.39 48.36 48.17 47.31 47.85 47.18 46.19 45.69 44.99 44.99 44.71 43.35 43.02 42.68 43.31 43.83 43.73 43.42 43.31 43.17 43.24 43.06 43.17 42.76 42.72 42.33 41.17 41.04 40.38 39.92 39.88 39.59 39.22 39.04 38.82 38.88
49.41 47.56 48.96 48.27 49.07 48.96 49.27 49.31 48.44 47.58 47.71 47.67 47.02 47.66 47.08 46.63 45.14 44.48 43.61 42.83 42.38 42.19 42.47 43.17 43.57 42.91 42.70 42.60 42.77 43.17 43.18 43.22 41.29 42.23 41.45 40.84 40.35 40.00 39.49 38.96 38.68 38.30 38.03 37.49

GFSNGP_sfc_wetblb_135.txt.gz
Wetbulb
49.02 49.56 50.28 50.94 50.26 49.95 50.67 51.64 49.53 50.77 50.35 53.05 54.13 55.95 59.13 60.42 61.70 61.57 62.07 63.03 63.52 63.86 64.03 64.07 64.11 64.11 63.59 63.53 63.46 62.60 62.07 62.15 61.17 61.36 62.51 63.58 64.25 64.84 65.39 65.71 65.73 64.99 65.32 65.52
48.07 49.00 49.56 48.58 50.11 50.76 50.15 48.90 49.02 48.98 49.85 54.91 55.91 56.01 58.24 59.55 60.38 60.42 61.87 62.70 63.44 63.62 63.85 63.84 64.10 63.98 63.90 63.57 63.05 62.35 61.81 60.78 60.80 61.50 63.03 63.77 64.06 64.70 65.39 65.31 64.34 63.95 63.42 61.96
47.36 48.38 48.80 46.40 49.83 50.39 51.02 51.50 51.66 48.33 53.19 55.23 55.22 56.79 58.27 60.11 60.65 60.81 62.09 62.80 63.46 63.60 64.26 64.69 64.47 64.27 63.74 63.25 62.61 61.82 61.48 60.86 60.85 61.86 62.82 63.83 64.45 64.99 65.02 64.03 63.00 62.45 61.53 58.18
47.02 48.12 42.06 50.53 51.92 52.83 51.79 52.46 53.25 53.39 54.15 56.13 57.60 58.91 59.49 61.57 61.52 61.33 62.34 63.61 64.03 64.59 64.63 64.96 64.88 64.18 63.67 63.20 61.94 60.97 60.40 60.40 60.99 62.29 62.91 64.15 64.82 65.05 65.21 64.14 61.50 61.00 58.59 57.88
46.82 46.06 47.28 49.30 51.49 50.95 50.85 51.68 55.17 54.59 56.58 57.63 58.04 58.59 59.66 61.18 62.51 62.79 63.97 64.95 65.51 65.81 65.81 65.20 64.27 64.85 63.70 62.58 61.57 59.87 59.45 60.65 62.12 62.78 63.07 64.07 64.03 63.92 64.80 64.48 61.74 61.59 58.65 56.29
46.56 44.20 42.18 50.53 51.65 54.82 54.14 47.88 54.83 56.26 57.52 57.41 57.87 53.28 56.35 62.17 62.39 64.06 65.01 65.38 64.91 64.61 64.67 64.75 65.32 64.27 62.64 61.93 60.42 59.38 60.49 61.79 62.77 63.51 63.71 63.28 62.68 62.53 64.57 64.43 61.67 61.26 57.80 57.01
46.94 46.07 47.58 51.06 53.57 54.49 46.83 49.23 56.32 56.57 56.97 57.40 56.97 59.26 61.55 63.51 63.17 64.51 64.77 64.40 64.93 64.88 64.49 65.08 65.00 63.49 62.08 60.95 59.94 61.76 62.27 63.16 63.58 63.73 63.22 63.16 61.25 63.22 63.78 63.12 62.03 61.79 58.04 57.87
45.26 44.13 42.49 53.33 53.55 50.29 52.85 55.77 56.71 57.79 58.12 58.16 60.10 60.26 60.76 62.66 63.45 63.83 63.72 63.61 63.98 64.19 64.30 64.61 64.01 62.64 61.48 60.61 62.85 62.85 63.28 63.30 63.19 63.44 62.72 61.83 60.49 62.73 62.95 62.16 61.68 61.02 57.45 57.07
48.83 48.90 53.66 53.88 52.95 54.34 55.21 54.73 56.10 56.90 57.66 58.79 59.48 59.71 60.60 61.65 63.56 63.59 63.70 64.14 64.51 64.30 64.34 64.23 63.69 62.80 61.63 63.20 63.32 63.36 63.53 63.37 63.26 63.59 62.93 62.98 59.82 60.54 61.33 61.52 60.27 60.79 58.23 55.57
49.07 51.04 52.27 53.68 54.30 54.30 55.27 56.08 56.19 57.10 57.41 58.19 58.30 60.02 60.51 61.27 62.41 62.77 63.48 63.85 64.74 64.11 63.90 63.93 63.59 63.32 62.70 63.76 63.41 63.19 63.04 62.76 63.42 63.26 61.96 62.40 60.28 59.63 61.57 60.32 59.36 59.01 58.31 55.37
48.59 50.72 52.01 52.68 54.26 53.80 54.07 55.26 54.90 55.74 55.96 55.99 57.01 58.14 60.38 61.13 61.89 62.66 63.86 64.31 64.31 63.96 64.29 64.64 64.48 63.31 63.13 62.63 63.09 62.75 62.27 62.56 62.66 61.20 61.52 61.14 61.39 62.05 61.85 61.70 55.58 54.24 54.62 53.64
48.74 53.13 52.99 52.62 54.04 53.42 52.69 52.39 53.70 53.89 54.38 55.85 56.30 56.74 58.60 59.48 61.78 63.03 63.26 64.07 63.94 64.13 64.48 64.51 63.50 63.02 63.14 62.70 63.59 62.73 61.36 61.65 61.12 61.02 60.35 59.76 60.40 62.07 50.95 50.26 45.20 42.50 41.93 44.56
50.38 52.57 52.89 52.52 52.47 52.87 52.50 53.01 53.51 53.61 54.84 54.63 55.97 56.83 57.58 59.29 61.46 60.72 62.52 63.40 63.58 64.06 64.63 63.74 62.77 62.79 62.49 63.53 63.71 62.88 61.60 62.19 61.86 59.46 60.11 59.04 58.76 59.19 58.74 55.14 46.01 44.16 41.99 41.80
50.63 50.04 49.04 50.30 49.70 52.69 53.03 53.62 54.03 54.66 55.69 56.47 56.65 57.78 58.17 59.03 60.17 60.75 61.36 62.28 62.44 63.25 63.27 62.76 62.48 61.62 63.41 63.46 62.70 62.42 62.42 54.78 60.65 60.89 60.14 58.91 58.89 59.80 59.44 60.56 58.58 58.04 51.03 47.92
50.26 51.14 49.99 51.23 51.89 51.91 52.92 52.78 52.38 52.90 55.13 56.48 57.78 57.59 57.77 58.33 59.30 60.67 62.60 62.01 62.21 62.58 62.68 62.60 61.82 61.90 63.69 62.52 62.32 62.37 61.37 61.57 61.51 61.36 60.80 55.27 56.86 59.61 60.15 59.73 57.79 57.90 57.33 53.26
50.52 50.28 50.83 51.15 51.65 52.03 52.00 51.98 51.80 52.81 54.79 56.41 57.09 58.17 58.81 59.40 59.89 60.68 61.79 62.35 61.56 61.19 61.99 61.99 61.50 62.41 63.13 62.73 62.53 61.34 62.04 56.69 56.32 60.55 59.37 59.34 58.69 59.18 59.37 57.86 56.49 54.81 54.17 55.30
50.08 49.92 52.38 52.38 52.97 53.17 52.43 52.57 53.06 54.20 55.57 56.50 57.26 58.50 59.15 59.52 59.03 60.41 60.62 61.81 61.90 61.69 62.12 62.19 61.50 62.87 62.42 61.76 61.59 60.84 60.85 60.50 55.08 59.09 56.47 59.30 58.75 58.01 57.14 58.13 56.86 56.01 54.38 51.94
52.97 52.92 53.52 53.76 53.08 51.82 52.09 53.40 54.36 55.87 56.49 57.40 58.30 58.83 59.26 58.98 53.57 56.54 60.16 60.70 60.66 59.96 60.29 61.54 61.99 59.79 58.27 59.00 60.65 59.87 58.53 58.91 59.00 58.80 59.02 58.71 58.51 57.78 56.69 56.44 56.22 55.60 54.91 52.45
55.40 54.92 55.17 54.62 54.19 54.36 54.74 55.31 56.12 57.02 57.63 57.86 57.78 58.12 58.35 58.52 59.71 59.89 59.90 58.81 58.65 58.46 59.24 61.09 58.42 55.94 53.75 54.92 56.96 57.11 55.82 55.94 56.90 56.98 57.21 53.78 56.16 55.95 54.98 55.56 55.26 54.99 54.63 53.66
54.13 55.19 54.82 55.29 56.28 56.15 55.73 56.78 57.37 57.81 58.04 58.30 58.83 58.15 58.18 58.56 58.88 58.77 59.20 57.05 56.23 56.83 59.08 59.11 58.89 54.41 53.58 56.11 51.88 51.65 54.20 55.72 54.98 53.33 52.74 52.70 52.16 52.08 50.79 47.28 52.13 51.95 51.15 50.16
54.27 54.33 55.63 55.02 55.00 54.59 55.25 55.24 56.59 57.43 57.98 58.84 58.41 58.30 58.15 58.35 58.29 57.90 56.97 54.96 50.14 49.90 51.79 52.12 52.87 51.29 51.32 50.48 49.95 49.52 51.96 51.57 50.74 51.60 51.25 50.64 50.71 50.23 49.78 49.36 48.98 48.69 48.65 48.88
54.01 54.92 55.06 55.26 54.63 55.09 55.71 56.65 56.24 56.17 56.01 57.06 58.08 57.12 55.04 53.52 52.79 50.15 49.86 49.55 47.50 47.32 50.13 49.41 48.13 48.65 48.81 51.26 51.48 51.46 51.07 50.80 50.10 49.43 49.64 49.57 49.24 48.52 48.42 48.47 48.05 47.97 47.99 47.96
55.09 54.15 53.67 53.58 53.43 53.68 54.09 52.81 53.55 54.58 54.24 54.60 53.43 52.01 50.23 50.26 50.76 49.61 46.08 46.88 47.90 46.93 47.53 47.52 48.50 48.91 49.55 51.53 50.89 50.33 49.78 49.42 48.98 48.93 48.75 48.66 48.57 48.28 48.00 47.39 47.37 46.83 46.54 46.34
54.06 55.33 53.55 53.80 53.46 51.91 51.04 50.57 50.78 49.51 48.58 48.14 48.21 49.22 48.68 45.70 45.96 47.23 47.66 46.23 45.63 46.29 47.30 47.30 47.44 47.24 48.46 50.16 49.67 49.24 48.43 48.12 48.04 48.14 47.57 44.34 46.53 45.58 45.11 45.08 45.15 45.59 45.91 44.85
55.37 53.86 53.70 51.56 52.40 51.30 51.17 51.56 49.89 49.17 48.23 48.25 48.92 48.72 48.34 48.99 48.43 47.84 47.59 48.93 45.51 47.57 47.61 45.52 45.84 46.70 49.70 49.31 48.92 48.69 48.46 48.49 48.26 48.03 46.58 45.42 45.21 45.03 45.01 44.86 44.25 44.16 44.74 44.59
53.69 52.35 51.50 51.22 53.03 51.48 50.42 49.86 49.91 50.35 49.61 46.46 47.10 48.39 48.28 48.08 46.23 46.48 46.91 46.79 48.41 46.92 48.59 49.21 49.57 49.70 49.59 49.18 48.82 48.78 48.74 47.81 47.77 47.08 45.69 45.90 45.74 45.43 44.88 44.70 44.16 44.02 43.66 43.47
53.34 49.38 52.57 50.79 51.88 51.98 51.42 49.84 48.40 48.23 47.54 46.82 46.45 48.43 48.75 48.71 48.36 47.84 45.99 48.85 49.06 49.07 49.31 49.50 49.34 48.37 49.15 48.93 48.91 48.84 48.95 48.86 45.55 47.61 47.12 46.73 46.53 46.12 45.46 44.85 44.43 44.22 43.93 43.50

GFSNGP_sfc_wetblb_138.txt.gz
Wetbulb
54.18 53.91 54.11 53.62 53.46 54.05 53.53 54.19 51.74 53.65 54.08 56.92 57.97 58.25 59.08 60.80 64.50 65.79 67.05 67.90 68.12 68.42 68.89 69.22 68.88 68.91 68.25 67.57 68.05 67.75 65.45 65.40 64.93 64.19 64.38 65.11 66.56 67.60 68.22 68.42 67.92 67.52 66.44 64.85
52.64 53.41 53.19 51.62 53.21 53.88 54.41 54.35 54.63 55.19 54.70 58.49 59.38 59.55 58.85 60.16 62.30 64.40 66.39 67.44 68.27 68.54 68.82 68.49 68.60 68.58 67.74 67.57 67.14 66.57 65.00 64.58 64.62 64.27 64.11 66.23 67.13 67.66 68.16 67.91 67.69 66.96 65.12 63.80
51.15 53.27 52.41 50.35 53.26 54.08 55.08 56.13 55.53 52.84 56.31 58.86 56.86 57.76 59.61 60.63 61.45 62.16 63.92 67.34 68.14 68.27 68.42 68.82 68.84 68.20 67.40 67.53 66.81 65.45 64.86 64.61 64.16 64.08 64.09 66.44 67.36 67.73 67.24 66.98 67.41 66.10 63.75 63.86
51.41 53.12 45.87 54.08 57.21 56.42 55.03 55.89 57.05 56.57 57.48 58.03 58.27 59.78 61.13 62.60 62.83 63.66 64.87 66.01 67.91 68.23 68.38 69.19 69.17 68.42 68.41 67.37 66.09 65.65 64.22 63.77 63.56 64.08 64.41 66.29 67.14 67.04 66.98 67.89 66.75 64.92 63.14 63.85
49.89 49.81 52.21 52.83 54.54 54.25 54.16 54.33 57.69 57.21 57.91 58.28 59.88 61.02 59.80 61.92 65.39 65.24 65.98 67.66 68.60 69.19 69.33 69.34 68.27 68.62 68.14 67.02 65.83 64.40 63.73 63.73 63.70 64.43 65.68 66.21 66.14 66.24 65.97 66.24 65.71 63.84 63.50 63.49
51.67 47.02 45.40 53.59 56.78 57.90 57.44 51.28 58.49 58.70 58.93 59.00 60.06 54.42 56.80 65.95 65.46 65.80 67.46 68.63 68.85 69.13 68.49 68.13 68.56 68.86 67.70 66.36 65.24 64.27 64.27 63.65 64.72 66.12 65.96 65.43 66.17 65.59 64.13 66.17 65.40 63.07 63.14 61.58
50.55 49.15 51.04 56.25 57.42 58.08 49.75 52.68 58.99 59.63 59.87 60.18 58.80 60.40 65.01 65.73 66.21 67.96 68.43 68.75 69.08 67.95 66.50 67.97 69.35 68.74 66.81 66.24 64.83 65.17 65.29 64.74 65.33 66.33 66.21 65.91 66.44 65.97 65.91 65.92 64.39 63.77 63.03 60.58
51.38 49.30 47.17 58.13 56.67 53.53 58.55 60.12 59.98 60.34 60.69 61.25 62.88 63.62 64.44 64.66 65.87 67.38 67.75 67.70 67.37 66.26 67.03 68.79 69.33 68.41 66.98 65.89 66.00 65.98 65.30 65.23 65.15 66.02 65.54 64.38 66.10 65.97 66.29 65.16 63.89 64.25 63.89 61.32
51.90 54.32 58.32 59.18 58.97 60.25 60.89 60.12 59.75 59.93 60.22 60.99 61.93 62.65 63.90 64.19 65.43 67.01 67.19 66.94 66.84 66.51 67.72 68.80 69.08 68.62 67.09 67.22 66.97 66.06 65.33 66.24 65.25 65.70 66.13 66.05 65.87 65.32 63.43 63.93 62.19 61.67 59.08 61.77
53.07 56.05 56.74 57.30 58.09 58.36 58.89 58.80 58.38 58.78 58.66 58.85 59.07 61.01 62.30 64.09 64.76 66.53 67.19 66.59 66.96 67.02 67.19 68.22 68.78 68.34 67.91 67.72 67.46 65.96 65.44 66.03 64.80 65.33 65.08 65.60 64.35 63.92 63.42 61.73 60.30 60.12 59.37 58.76
53.44 56.05 57.12 57.59 58.60 57.96 57.45 57.92 57.01 57.07 56.91 56.47 57.58 58.38 60.15 61.24 63.99 65.61 66.53 67.12 67.27 67.17 67.34 68.14 69.06 68.25 68.14 67.44 66.71 64.82 65.27 64.83 63.06 62.57 63.57 63.58 64.07 63.21 63.30 61.99 56.78 59.26 58.36 56.05
50.41 57.36 56.99 57.08 59.04 58.06 56.08 55.31 55.72 54.91 54.28 55.07 55.72 56.12 57.56 58.98 60.88 63.18 64.83 66.67 66.79 67.56 67.59 68.18 68.58 68.22 67.71 67.36 66.24 65.20 64.33 62.78 61.96 62.10 62.25 62.00 61.49 62.66 50.44 49.70 46.16 44.19 42.87 45.64
55.06 56.63 55.15 56.31 57.28 56.27 54.67 54.54 54.63 55.04 55.81 55.67 56.84 57.42 57.99 57.85 58.97 59.49 63.52 64.78 66.14 66.95 66.75 64.97 63.28 63.59 67.25 66.96 65.76 65.85 64.83 62.52 62.39 60.84 62.12 62.09 61.92 61.19 61.15 54.39 46.56 44.40 43.10 43.30
53.95 54.10 51.53 53.28 52.12 54.05 54.72 55.06 55.43 56.18 56.62 56.85 57.39 58.53 58.91 59.12 59.53 59.77 62.48 64.93 63.70 64.96 64.43 63.89 65.93 65.59 66.13 65.83 66.10 65.91 64.28 56.03 62.73 61.99 62.36 63.38 59.97 60.15 61.13 62.34 59.95 59.34 48.37 49.47
52.28 53.31 53.38 54.28 54.48 54.56 55.27 55.23 54.39 54.08 55.16 56.09 57.57 57.95 58.43 58.92 59.60 60.37 63.18 64.77 65.21 64.85 65.33 66.01 65.91 65.62 66.00 65.88 64.83 63.70 63.38 62.73 63.27 64.25 63.72 61.88 62.68 61.55 62.92 61.20 60.38 57.41 56.71 55.47
53.41 55.25 55.83 54.26 53.99 55.45 56.25 56.24 55.79 55.54 55.14 56.09 56.82 57.69 59.14 60.22 61.17 62.21 63.01 63.86 63.15 60.20 62.82 65.00 65.73 65.50 66.19 65.62 64.49 63.77 64.05 59.28 57.96 63.11 60.75 61.45 63.04 63.43 61.34 60.40 60.17 59.19 57.93 57.69
54.26 54.16 55.20 54.87 55.79 56.05 56.25 57.20 57.08 56.19 55.99 56.67 57.53 59.16 60.02 59.98 61.83 62.59 63.19 64.55 64.12 64.83 65.26 65.51 64.64 65.52 65.73 64.93 63.78 63.30 62.62 62.62 59.39 61.31 62.44 62.48 63.50 61.84 61.13 60.47 58.40 57.18 55.29 53.30
57.30 57.30 57.44 57.36 57.07 57.26 56.73 56.41 57.11 57.43 57.43 58.91 59.68 60.13 59.96 60.45 61.98 60.61 61.87 62.71 62.46 59.97 63.11 64.92 65.47 65.02 62.66 60.95 60.35 60.27 60.84 61.82 61.43 61.51 61.65 61.75 61.69 61.63 60.51 59.33 58.86 58.50 57.74 54.92
57.26 57.30 57.76 58.03 58.33 58.14 58.48 58.74 59.02 59.01 59.53 60.03 59.84 59.35 61.16 61.87 62.59 61.68 63.11 61.91 60.73 60.90 61.64 62.45 57.14 59.50 58.66 57.69 57.49 55.44 55.88 56.33 56.36 58.01 60.22 56.75 60.13 60.38 60.15 60.31 59.05 58.33 56.94 55.06
56.46 57.36 57.66 56.90 57.98 58.04 57.79 58.77 58.67 59.61 60.05 60.43 60.64 60.70 60.67 61.18 61.68 61.53 61.23 55.42 54.58 55.91 60.70 60.18 60.80 59.79 59.78 56.53 53.86 53.19 53.45 54.25 57.38 58.70 58.56 58.08 57.72 56.79 55.34 50.09 54.67 54.11 53.47 52.81
56.75 56.67 56.43 56.28 57.29 56.69 56.81 57.22 56.68 59.44 60.35 61.24 60.88 60.55 60.44 60.90 60.97 60.35 57.75 57.23 56.47 55.80 55.10 56.85 57.31 55.37 55.04 52.31 51.46 51.60 53.28 54.84 56.13 56.37 56.01 55.24 55.12 54.56 54.00 53.43 52.51 52.03 51.57 51.43
56.19 56.35 55.62 55.25 54.69 54.48 55.66 57.07 56.82 57.13 57.53 58.25 59.55 59.68 57.72 57.67 57.68 57.32 57.58 56.75 54.47 48.88 53.45 50.62 51.25 51.47 51.30 51.39 52.26 54.47 54.19 53.96 53.84 53.71 53.18 52.39 52.04 52.08 52.02 51.88 51.06 51.01 50.83 50.59
56.96 56.76 56.48 55.15 54.19 53.69 53.67 52.72 52.08 52.72 53.98 54.33 54.06 55.09 56.71 58.00 57.83 56.02 50.10 50.44 51.08 48.25 50.08 49.01 49.50 50.37 50.35 54.78 54.35 53.79 53.24 52.87 52.30 52.18 51.89 51.76 51.36 51.12 50.10 48.61 49.29 49.32 49.27 49.47
57.00 57.41 55.81 55.73 55.72 52.93 50.46 51.59 50.79 49.50 49.26 49.84 52.04 54.08 54.98 53.14 49.65 49.64 49.59 46.49 46.23 47.63 48.41 49.58 49.70 48.37 50.41 53.42 53.00 52.48 52.19 51.97 51.58 51.08 49.98 45.57 48.97 48.47 48.25 47.84 47.88 47.74 47.99 47.23
57.47 54.73 54.58 55.45 51.87 53.10 52.04 52.75 51.22 50.88 51.42 48.84 49.22 50.15 51.09 51.50 49.77 50.23 51.83 48.16 46.83 48.95 49.94 45.45 47.17 48.18 52.21 52.01 51.65 51.47 51.86 51.70 51.47 50.41 49.38 48.81 48.41 48.16 48.22 47.91 47.27 47.43 47.71 47.53
55.38 52.12 53.50 56.22 52.37 51.64 55.04 55.41 54.34 52.82 54.69 53.16 53.25 53.21 53.37 53.02 51.87 51.32 51.07 49.22 51.11 48.78 50.99 51.12 51.68 52.16 51.78 51.56 51.44 51.60 51.23 50.01 50.34 49.44 48.87 49.20 49.02 48.97 48.72 48.58 48.51 48.42 48.24 47.94
55.41 51.51 55.21 55.48 54.43 53.77 50.86 51.38 51.85 49.51 50.54 52.46 51.13 51.55 51.45 51.40 50.63 50.53 48.53 51.05 51.21 51.31 51.77 51.54 51.44 51.05 52.01 51.71 51.34 51.69 51.79 51.47 46.69 50.49 50.19 49.96 49.93 49.60 49.25 49.23 49.06 48.93 48.86 48.29

GFSNGP_sfc_wetblb_141.txt.gz
Wetbulb
54.59 55.52 55.80 54.82 54.06 54.47 54.46 54.93 52.84 54.56 54.71 58.07 61.19 60.85 60.63 61.57 62.84 64.98 67.16 69.03 70.20 70.46 71.51 71.70 71.71 71.77 71.41 70.87 70.21 69.38 68.04 67.14 67.15 67.38 66.74 65.90 66.54 68.31 68.68 69.43 68.79 69.31 68.33 67.80
53.37 54.69 54.78 53.22 54.77 55.44 54.97 55.16 54.95 55.19 55.14 61.02 62.13 61.77 59.89 60.35 61.20 62.21 64.47 66.73 69.30 70.74 71.00 71.23 71.36 71.06 70.75 69.82 69.54 69.03 67.58 66.37 67.06 66.93 66.29 65.72 66.58 67.82 69.26 68.58 68.55 68.24 67.08 66.56
51.87 55.01 54.19 51.35 53.87 54.14 54.74 55.91 55.85 53.51 57.49 59.88 60.10 59.52 59.81 60.74 61.37 61.78 62.60 64.22 67.68 70.16 71.35 72.48 71.37 71.33 69.98 69.33 69.52 68.10 67.34 66.96 66.27 65.82 65.13 65.97 66.94 67.43 68.09 67.79 67.93 67.04 66.30 66.41
52.73 54.18 47.96 55.32 58.29 57.87 56.18 56.88 58.24 58.22 58.92 60.37 60.38 60.66 61.19 62.60 62.23 62.27 62.78 64.12 65.81 69.55 71.36 71.84 71.85 71.28 70.04 69.40 68.38 67.40 66.83 66.24 65.88 65.22 64.89 66.86 67.82 68.04 68.15 67.42 67.40 66.44 66.42 66.77
51.24 50.76 54.14 55.61 57.27 56.55 55.61 55.66 58.59 58.30 59.69 59.62 60.20 61.07 61.73 64.69 65.49 64.63 65.74 67.33 68.58 69.93 72.06 72.00 71.05 70.39 69.36 68.29 67.86 67.00 66.14 66.36 65.21 64.64 66.04 66.78 66.80 67.42 67.71 66.20 67.64 66.30 66.59 66.47
53.87 49.76 47.75 55.44 59.16 59.47 58.79 52.88 60.40 59.70 59.28 59.52 60.61 56.85 60.62 66.46 66.18 66.40 67.84 69.00 69.42 70.40 70.96 70.76 71.01 69.85 68.86 67.93 67.51 66.69 66.54 65.91 65.67 65.95 66.91 66.31 66.83 67.22 67.23 66.64 67.36 64.76 65.93 65.13
52.52 50.97 53.33 58.89 59.60 59.88 51.41 54.52 61.54 60.82 61.16 61.33 60.34 62.30 65.65 66.59 66.49 68.12 68.75 68.96 70.39 70.70 70.01 70.45 69.86 69.44 68.36 67.91 67.20 67.67 67.24 66.26 65.42 66.44 67.23 67.28 67.28 67.60 66.97 67.12 67.00 66.46 65.46 65.17
52.22 50.27 48.34 60.73 59.24 55.08 61.03 63.46 62.93 62.25 62.54 62.22 62.95 63.71 64.86 65.60 66.08 66.65 67.98 69.13 70.01 70.03 69.40 71.10 70.62 69.57 68.79 67.70 68.60 68.12 67.61 66.01 65.99 66.20 66.19 65.94 67.35 67.68 67.63 67.38 66.32 65.62 65.98 62.93
55.95 54.56 61.99 61.52 62.55 64.19 64.36 63.22 62.53 62.28 62.02 62.12 61.70 62.49 63.79 65.05 66.10 66.59 67.99 69.22 69.90 69.02 68.69 69.58 71.34 70.07 68.76 69.82 69.42 68.30 67.07 66.36 67.29 66.64 66.19 66.94 66.81 67.17 65.37 64.90 65.63 62.42 59.98 59.57
56.31 58.79 59.33 60.65 62.04 62.36 62.62 62.38 61.29 60.93 60.29 59.84 59.02 60.09 61.19 62.91 64.83 66.48 68.04 68.31 69.07 68.49 67.62 69.45 70.28 70.35 70.21 70.46 69.53 68.42 67.03 66.85 67.43 65.98 66.29 66.94 65.14 63.71 63.91 62.71 62.10 60.53 60.28 59.00
55.86 58.95 59.43 58.95 59.86 60.50 60.71 60.91 59.40 59.76 59.23 58.23 58.04 58.02 59.07 59.87 61.82 63.14 66.02 68.16 68.98 68.33 68.40 69.57 71.24 70.30 70.41 69.99 69.12 67.37 66.54 66.15 66.01 64.18 63.85 65.75 65.79 63.25 62.41 61.96 58.31 59.66 57.94 58.75
53.11 59.19 59.50 59.53 61.27 60.78 59.27 58.44 58.89 57.59 57.34 58.11 57.45 57.07 58.01 57.88 59.05 60.28 61.92 64.24 66.79 68.21 68.55 68.54 68.64 69.87 68.47 64.15 65.66 64.23 65.50 64.80 64.20 62.85 62.11 62.03 62.41 60.88 50.01 50.91 46.82 45.95 44.54 49.07
56.78 59.95 60.20 59.89 60.66 60.56 58.12 57.77 56.86 56.60 57.02 56.28 57.35 57.97 58.25 58.77 60.22 59.47 60.67 60.27 62.60 65.12 66.62 68.72 65.66 63.85 63.98 63.08 62.82 63.66 63.48 64.81 63.22 60.59 61.26 62.94 62.17 61.66 58.38 52.29 46.73 45.23 46.77 45.26
56.66 56.49 54.64 55.50 55.73 57.75 56.63 55.93 56.60 56.54 57.09 57.38 57.83 58.67 58.80 59.22 60.12 60.55 60.66 61.61 61.99 63.98 67.45 65.53 63.81 63.55 63.23 64.80 66.45 65.25 65.59 58.40 62.93 62.34 61.24 63.23 61.95 61.85 62.34 57.92 60.83 59.44 50.68 49.05
54.14 54.76 54.67 55.49 55.87 55.96 56.54 56.02 55.34 55.42 56.50 56.75 57.50 57.85 58.37 58.84 59.63 60.75 62.06 62.47 62.74 66.00 65.61 65.77 64.14 63.19 65.50 67.18 66.44 67.43 66.14 63.28 61.71 61.68 62.52 60.59 62.72 61.31 60.43 61.41 61.00 60.28 60.52 51.60
53.82 54.55 55.21 55.69 56.25 56.37 56.03 56.81 57.11 57.52 58.34 58.50 57.35 57.57 58.78 59.74 60.43 61.00 61.88 62.65 61.69 62.76 64.68 63.51 64.73 63.30 67.77 67.02 66.64 65.49 64.52 60.90 60.42 63.04 59.37 61.76 61.40 61.19 58.48 61.10 61.17 59.26 58.05 56.78
53.60 54.09 55.43 55.89 57.05 57.52 57.96 58.46 58.44 58.04 58.26 58.09 58.16 58.76 59.03 59.67 60.21 60.21 62.07 63.56 64.45 65.01 64.44 63.58 59.90 56.23 56.79 66.25 65.26 63.87 64.63 59.92 58.64 61.41 60.81 61.69 61.42 59.56 61.24 59.48 59.35 57.49 56.62 54.36
57.02 57.60 57.86 57.63 57.12 57.47 58.11 59.13 58.60 58.30 58.20 58.98 59.76 60.13 60.15 59.77 59.69 61.67 62.58 63.61 63.67 64.04 63.76 64.89 63.37 62.29 62.98 64.48 63.79 62.45 61.33 60.73 58.51 58.88 60.68 59.14 59.69 60.47 59.27 59.26 59.75 57.10 58.34 55.20
58.40 58.36 58.75 58.93 59.04 59.21 59.07 58.92 60.10 60.70 60.95 60.59 60.23 59.78 60.54 61.01 61.35 62.39 62.68 62.89 62.45 61.63 62.79 62.90 60.37 63.41 63.01 59.98 61.31 61.28 59.59 59.56 59.02 58.85 59.21 56.45 58.72 59.96 58.38 57.81 58.14 58.22 56.29 54.37
58.25 58.31 58.72 58.74 58.34 57.50 57.68 59.43 60.52 59.95 60.81 60.70 61.28 60.94 60.70 61.47 61.95 62.55 62.64 59.94 60.26 59.24 61.65 62.55 62.81 61.42 60.46 59.04 57.46 58.29 57.25 56.18 56.49 56.73 57.24 57.48 57.89 57.99 56.75 51.05 55.29 54.94 54.11 53.33
57.82 58.16 57.09 56.91 56.78 57.37 57.60 57.89 58.55 59.55 60.62 61.35 61.27 60.89 61.08 62.09 62.32 61.89 61.42 59.05 57.94 58.35 59.56 59.41 60.99 59.75 59.10 58.23 56.82 54.54 55.19 55.68 55.36 54.64 55.60 56.50 57.55 56.50 56.13 54.82 53.72 53.21 52.74 52.50
58.66 57.09 56.70 56.41 56.29 55.83 56.18 56.53 57.63 58.45 58.48 60.49 60.73 61.60 61.52 60.56 59.66 59.72 60.30 58.39 57.71 51.68 56.53 58.31 58.85 55.18 54.52 54.35 56.05 53.62 52.59 55.30 56.13 56.52 55.23 55.53 54.46 54.17 52.92 52.22 51.54 52.01 51.69 51.95
57.29 57.39 57.59 56.74 55.62 54.00 54.46 53.56 54.32 55.50 56.21 57.47 58.05 58.63 60.03 58.47 59.66 58.30 56.23 55.27 57.10 51.21 50.63 50.58 49.86 50.81 51.90 55.30 55.89 56.16 55.53 54.78 54.82 54.72 54.19 53.90 53.48 52.95 51.68 50.70 50.91 51.27 50.37 50.99
58.18 58.12 56.88 55.66 55.26 55.22 53.52 53.70 52.82 50.06 49.55 51.51 53.90 55.40 57.33 56.70 56.77 56.66 53.21 48.34 46.77 49.07 50.96 50.42 50.67 48.88 49.05 56.38 55.86 55.27 55.14 54.69 54.14 53.14 51.99 46.40 50.88 50.22 49.65 49.79 49.38 49.51 49.54 48.49
58.11 57.15 55.64 55.41 55.44 53.01 55.92 56.32 54.78 49.78 48.97 50.82 52.24 53.58 52.96 53.12 52.00 51.19 51.91 49.73 46.98 49.17 50.24 47.01 48.22 49.95 54.73 54.19 53.61 53.24 53.23 53.21 52.77 51.89 51.17 50.78 50.40 50.10 49.95 49.60 49.61 49.92 49.68 49.70
53.96 54.85 55.41 53.91 53.08 56.84 55.44 56.11 54.88 55.12 54.71 53.82 54.20 53.98 53.12 51.82 51.10 51.58 51.19 49.76 51.37 49.46 51.53 52.36 53.04 53.73 53.52 53.22 53.33 53.42 52.84 51.16 51.02 51.12 50.73 51.25 50.98 50.85 50.71 50.54 50.28 50.38 50.31 50.01
57.65 53.62 56.56 55.39 55.30 55.78 56.75 54.75 54.97 54.65 54.54 54.35 52.68 53.46 53.50 53.57 52.75 52.55 50.34 52.41 52.53 52.90 53.25 52.64 52.82 53.20 53.82 53.47 53.48 53.55 53.50 52.68 46.44 51.79 51.79 51.68 51.64 51.31 51.02 50.92 50.87 51.50 51.02 50.25

GFSNGP_sfc_wetblb_144.txt.gz
Wetbulb
53.78 54.88 55.80 54.52 53.71 53.84 53.48 54.55 52.68 54.84 55.00 58.80 61.39 62.08 62.61 64.13 66.15 64.65 65.83 68.01 71.19 74.07 74.53 74.41 74.11 73.62 73.00 72.45 73.09 71.91 70.77 70.19 70.15 70.80 70.22 69.22 68.96 68.65 69.80 69.66 69.46 69.20 68.63 67.63
52.80 54.29 54.29 53.82 55.00 54.61 53.80 54.23 54.70 54.91 54.85 62.95 64.12 63.09 62.04 62.13 62.26 63.20 65.62 65.03 69.39 72.46 73.81 73.03 73.48 72.89 72.45 72.81 72.08 71.53 69.85 69.05 69.73 69.78 68.82 68.61 68.58 68.31 69.15 69.06 69.40 68.43 66.81 66.57
51.31 53.62 53.31 51.03 54.40 54.75 55.49 56.35 55.32 53.58 58.45 62.53 61.39 61.81 62.26 61.98 61.74 61.62 62.72 64.55 68.84 71.29 74.05 73.77 73.52 73.18 72.01 72.37 71.97 71.30 69.74 69.39 69.35 68.95 67.70 68.53 68.41 68.74 68.92 69.12 69.11 67.50 67.04 65.41
51.31 54.80 47.39 54.54 57.83 57.08 55.54 56.51 57.64 57.40 61.31 63.14 63.20 63.19 62.61 63.54 62.51 61.95 62.32 65.06 68.64 68.98 72.92 74.10 73.86 73.20 72.07 72.04 71.15 69.53 69.04 68.58 68.85 68.08 67.39 68.49 69.52 69.12 69.67 69.87 68.12 66.67 65.40 66.41
51.15 50.39 53.52 54.94 57.54 56.73 55.44 55.57 58.83 57.95 60.75 60.93 61.45 61.33 63.49 66.13 67.19 66.60 66.99 69.54 72.12 71.49 73.89 74.50 73.27 73.09 71.26 70.21 69.84 68.76 67.99 68.04 68.23 67.81 67.64 68.47 68.33 69.07 69.82 68.44 67.40 66.15 66.51 65.65
53.50 48.98 47.96 56.30 60.22 60.75 59.98 53.96 60.13 60.30 59.62 59.85 61.05 55.87 61.24 66.71 66.03 67.29 70.25 70.73 70.50 70.20 71.65 74.18 73.83 72.01 69.25 69.60 68.95 67.83 67.60 68.48 68.97 68.54 68.31 68.11 68.72 69.19 69.95 69.12 67.07 66.64 65.29 66.30
53.70 51.43 53.35 59.96 59.75 60.75 52.01 55.34 62.01 61.57 61.89 61.94 61.42 63.45 66.10 65.81 66.19 68.03 69.36 68.92 69.60 71.09 71.59 73.90 73.61 70.99 69.64 69.48 68.45 69.00 68.82 69.60 68.73 68.67 68.94 68.97 68.94 70.00 69.31 68.38 66.96 65.86 65.37 66.08
54.33 52.17 49.88 61.08 59.08 55.74 62.64 65.59 63.27 64.16 63.81 63.63 64.04 63.93 64.76 65.14 67.28 67.67 67.82 68.25 69.15 71.93 72.93 73.77 72.65 70.82 69.46 68.98 69.82 68.80 69.44 68.87 68.14 68.63 67.09 67.49 70.18 69.85 68.84 67.88 65.86 64.56 66.23 62.58
56.12 55.47 63.03 63.91 64.28 66.31 66.03 64.90 63.97 64.22 63.18 63.46 62.24 61.99 62.79 63.73 66.21 67.77 68.33 69.81 70.62 71.30 72.89 72.09 72.00 70.85 69.90 70.95 71.82 70.04 69.37 69.27 68.92 69.14 67.70 68.84 68.46 67.45 66.21 66.40 65.66 60.67 63.01 60.64
58.70 59.55 60.79 62.11 63.40 64.35 64.66 62.88 62.92 62.45 61.49 60.53 59.40 59.86 60.24 61.58 62.57 64.63 66.93 68.01 69.61 71.04 71.16 68.30 70.81 71.11 71.15 71.88 71.90 68.43 67.16 66.35 65.38 65.27 67.20 67.69 66.43 65.91 64.96 65.79 65.22 63.32 60.75 59.91
59.07 59.59 59.79 60.12 61.18 61.87 61.92 61.50 60.52 60.23 59.86 58.95 58.39 57.87 58.30 59.89 63.15 63.46 65.52 65.91 66.54 68.33 69.76 66.97 69.82 69.84 69.75 69.77 66.48 62.27 60.73 60.83 62.72 64.15 64.46 63.78 65.65 58.45 63.96 58.04 59.83 61.62 59.76 59.35
51.86 61.44 61.30 61.16 61.83 61.74 60.17 59.32 59.69 58.68 58.22 58.71 58.10 57.79 58.47 59.86 62.10 63.05 62.73 63.42 63.80 65.13 65.90 68.60 68.93 65.65 60.41 60.22 60.04 57.42 57.60 59.38 59.18 62.40 63.92 63.97 61.55 55.96 49.43 49.14 46.94 46.98 44.98 52.41
57.07 60.44 60.82 61.89 62.71 61.95 60.38 59.25 58.37 57.20 57.58 56.90 57.91 58.53 58.15 60.64 62.33 60.82 62.41 62.70 63.52 63.46 64.00 66.58 68.89 65.78 61.69 61.70 60.65 59.94 58.47 59.64 63.57 62.83 63.06 63.41 61.87 60.19 54.62 52.36 46.32 45.51 44.89 45.44
57.81 58.35 56.82 57.31 57.43 59.90 59.09 58.12 57.16 57.48 57.58 57.08 57.41 59.77 59.64 60.41 61.37 62.73 63.21 63.65 64.23 63.75 64.49 65.44 66.78 66.13 66.41 65.24 64.51 60.94 63.40 58.62 64.22 64.90 63.31 62.70 60.61 61.36 59.40 57.40 54.43 55.50 48.02 49.16
54.92 55.25 54.86 56.38 56.52 56.32 57.23 56.99 56.09 55.25 55.87 56.81 59.03 59.43 59.33 59.38 60.69 62.43 63.72 63.68 63.31 63.64 64.65 65.86 65.29 65.67 65.84 65.79 65.53 64.38 65.01 64.49 64.73 64.33 62.94 61.23 60.26 61.03 61.12 61.06 58.78 61.22 59.84 50.33
54.53 54.19 54.37 54.30 55.06 56.50 56.37 55.69 54.61 55.56 57.59 58.61 60.16 61.01 60.64 60.74 62.07 62.88 62.65 63.49 62.60 62.33 65.07 64.64 64.65 61.66 62.18 61.59 59.23 57.49 59.76 60.22 59.32 60.29 59.36 58.22 60.03 58.87 58.96 59.70 58.55 57.76 56.44 56.55
51.67 52.06 54.14 54.54 55.91 57.12 57.64 58.11 58.35 58.26 58.86 58.17 59.83 60.69 60.52 60.23 61.79 61.13 62.53 62.83 64.54 64.98 65.65 65.49 64.03 62.02 61.51 59.97 58.92 58.24 60.17 61.03 57.24 60.07 61.13 61.97 58.27 58.47 56.17 55.34 58.89 55.60 57.01 54.30
56.17 56.67 57.02 56.92 56.56 56.70 57.20 57.87 58.55 59.49 59.00 59.41 61.09 60.79 60.81 61.12 60.52 62.67 63.56 64.46 63.11 63.26 63.98 64.72 64.91 65.17 61.15 58.50 58.09 56.30 59.53 60.82 59.68 59.78 59.80 59.04 57.12 57.17 57.56 58.96 57.17 57.47 55.46 55.09
56.98 57.18 58.01 58.34 58.92 58.92 59.11 59.31 59.80 60.51 61.31 61.11 60.68 60.40 62.19 61.71 62.30 62.83 63.29 62.51 62.37 61.53 62.80 63.08 61.43 63.10 60.86 59.96 58.34 59.95 60.56 59.68 59.97 59.51 59.63 57.72 58.46 57.61 57.38 57.42 55.65 57.33 55.44 53.99
57.60 58.26 59.33 59.19 59.36 58.90 58.77 59.86 60.19 59.64 60.49 60.74 61.09 60.81 59.49 61.81 60.47 62.44 62.81 60.51 59.29 60.30 61.51 61.96 61.89 60.89 60.77 59.88 59.83 60.40 59.80 59.52 59.12 58.94 58.61 59.13 56.94 56.14 56.30 51.00 55.19 54.77 53.74 53.33
57.49 58.64 58.24 58.17 58.71 58.97 59.33 59.22 58.74 58.29 59.17 61.10 61.04 59.85 61.25 61.34 62.88 62.51 61.77 59.36 58.71 58.81 59.53 60.45 60.32 60.22 60.04 58.66 59.06 58.79 58.11 57.05 56.14 56.50 56.20 55.26 56.35 55.52 56.00 53.91 53.42 52.86 52.07 52.49
58.95 58.20 57.05 57.45 57.12 56.69 57.41 57.29 57.26 57.73 58.57 59.96 60.89 61.21 61.22 60.65 60.39 59.81 60.58 58.87 58.59 51.21 58.72 59.32 59.07 55.12 58.71 56.47 58.08 57.63 57.37 56.79 55.59 55.10 54.78 55.73 55.13 54.05 53.26 52.95 51.82 51.83 51.68 52.42
58.34 58.09 57.64 56.92 55.74 55.21 55.42 54.61 53.98 54.88 56.14 57.58 58.28 59.86 60.63 61.46 59.06 57.70 55.55 57.11 57.95 52.24 57.92 56.28 50.43 50.61 51.67 55.03 56.40 55.74 56.16 55.69 55.15 54.96 54.69 53.95 53.34 52.99 51.84 50.93 50.93 51.12 50.46 50.67
58.23 58.23 56.87 56.60 56.40 55.36 53.68 54.20 53.52 50.97 51.64 54.48 55.57 56.90 58.34 56.86 55.83 53.46 52.25 48.57 46.15 51.09 53.46 51.24 50.52 48.99 48.83 52.38 56.11 55.74 55.38 54.99 54.18 53.19 51.94 47.95 51.09 50.55 50.36 50.16 49.63 49.51 49.27 48.27
57.63 57.78 57.15 56.00 55.18 54.87 55.43 54.58 52.22 49.73 51.66 53.16 54.54 53.62 53.92 54.18 54.29 53.76 52.65 50.73 48.11 51.13 51.76 48.66 48.99 50.75 54.20 54.38 53.67 53.34 53.32 52.70 52.11 51.69 51.18 50.88 50.21 49.65 50.00 50.34 50.03 49.77 49.69 49.57
57.00 56.09 56.23 55.62 57.57 56.53 56.29 55.90 55.06 55.10 53.85 50.78 49.96 51.77 51.15 51.67 51.84 52.19 52.46 50.62 50.59 48.90 49.81 52.41 52.99 53.39 53.34 53.12 53.12 53.26 52.37 51.43 50.95 50.72 50.53 51.43 51.13 50.65 50.24 49.69 49.85 50.28 50.02 49.76
57.49 52.65 55.78 55.47 55.96 56.80 56.01 55.68 55.40 54.62 54.53 54.48 53.73 54.68 53.91 53.40 52.93 51.55 50.20 52.29 52.35 52.61 53.34 52.89 52.64 52.45 52.93 53.09 53.21 53.18 53.10 51.56 46.63 50.68 51.84 51.52 51.67 51.26 50.97 50.84 50.72 50.68 50.50 50.28

GFSNGP_sfc_wetblb_147.txt.gz
Wetbulb
49.62 51.55 52.11 51.54 51.09 50.83 47.26 47.68 45.98 47.69 50.29 53.15 55.74 56.09 57.41 59.32 60.70 60.85 62.48 62.30 63.18 68.38 67.66 68.36 68.51 68.45 69.09 68.99 68.58 67.11 65.80 64.75 64.38 64.96 64.20 62.82 61.64 61.41 62.31 64.31 64.94 64.68 63.50 62.60
48.19 51.96 51.26 50.33 53.22 52.12 51.33 50.74 49.68 50.75 50.91 57.96 57.03 58.76 58.49 59.31 60.11 59.66 59.68 60.77 62.16 69.25 69.36 69.24 68.54 68.22 68.22 68.16 67.51 66.53 65.19 64.13 64.54 63.88 62.81 63.11 62.75 63.11 62.74 63.56 64.37 63.01 62.99 62.89
44.60 50.55 50.06 47.64 50.06 52.40 52.14 52.46 50.71 47.51 53.10 57.62 56.96 57.81 56.67 56.93 58.23 58.63 59.14 60.27 61.50 63.26 68.32 68.89 68.56 68.65 67.94 67.28 67.05 65.57 64.58 64.62 64.14 62.85 63.46 62.59 62.89 62.33 63.08 63.65 63.30 61.55 62.12 61.76
44.29 45.86 40.28 49.07 54.48 55.46 54.33 54.26 56.45 58.02 58.08 57.89 57.93 57.90 58.15 57.71 56.91 57.50 59.60 60.48 61.00 62.26 67.37 68.59 69.07 68.46 68.68 67.37 66.43 65.26 65.04 64.46 63.48 63.55 62.50 62.03 62.29 63.91 63.12 63.38 62.52 61.71 61.57 61.40
43.80 43.44 47.23 51.42 53.67 54.37 52.63 53.30 58.94 57.85 58.11 58.47 60.56 60.85 59.45 62.45 62.18 61.37 61.59 62.05 62.13 62.81 62.78 69.25 68.98 68.87 68.13 66.79 66.16 64.52 64.75 63.55 64.11 64.00 61.48 61.96 63.01 62.22 62.77 62.19 62.50 61.49 61.68 60.64
45.69 42.27 41.77 49.72 57.40 58.52 57.20 47.89 58.56 58.54 57.07 56.90 58.26 53.51 56.75 61.02 63.37 63.17 63.92 63.93 63.40 64.07 66.59 68.97 68.97 68.79 67.08 65.76 64.50 63.75 64.07 63.90 64.31 63.09 62.43 62.81 62.64 62.24 62.50 63.10 62.25 62.31 61.01 60.70
46.36 44.00 47.59 54.47 57.61 59.22 47.80 49.62 59.68 61.07 59.77 58.78 56.90 58.31 60.27 61.84 62.31 62.24 63.27 62.72 63.81 64.80 63.63 69.06 69.19 67.81 65.55 64.50 63.68 63.63 63.74 63.87 64.10 62.27 62.91 64.08 62.79 63.15 62.41 62.40 62.47 61.23 60.12 59.28
48.55 46.43 44.16 59.59 56.17 52.33 56.28 58.85 60.42 60.69 60.80 60.10 61.13 60.73 61.29 62.59 62.81 63.61 63.69 64.96 65.49 64.46 65.25 69.40 67.38 66.18 63.69 62.63 63.96 64.40 64.15 63.25 62.60 62.38 64.49 63.71 63.28 63.32 62.50 61.97 61.82 60.05 59.26 56.03
51.48 52.55 58.67 61.27 60.46 61.33 60.96 58.97 58.89 58.82 59.84 59.69 58.63 58.75 59.59 59.16 59.38 61.04 61.86 62.71 64.23 65.11 66.04 68.28 67.76 66.60 64.20 64.51 65.20 64.44 63.58 63.34 63.29 64.13 63.80 63.63 62.01 62.29 61.64 60.96 59.91 59.51 56.38 54.73
53.48 55.60 57.86 59.42 61.33 61.08 61.13 59.65 59.37 57.96 56.98 56.97 55.45 56.78 56.49 57.32 57.14 58.14 58.59 59.10 60.55 61.63 63.67 65.43 67.12 66.53 67.20 67.31 66.75 64.32 62.15 61.07 59.77 59.70 60.46 62.48 62.74 62.57 61.32 61.50 58.62 56.51 55.02 54.01
54.24 56.05 57.26 58.45 59.12 58.45 58.69 58.18 57.76 57.30 56.50 55.42 54.61 53.59 54.12 54.69 54.93 55.32 56.33 57.25 57.44 57.76 58.66 60.49 65.56 64.23 64.16 63.11 61.85 60.81 60.43 58.71 58.58 59.16 59.31 60.32 60.46 59.30 60.03 55.86 56.88 55.47 55.00 53.06
49.34 53.98 56.86 56.70 57.66 58.74 57.14 56.40 56.63 55.86 54.81 55.31 54.87 53.36 53.57 53.26 54.60 54.95 55.13 55.74 54.91 56.09 56.44 57.37 63.72 60.48 61.23 62.06 61.04 58.36 57.49 57.18 58.04 57.85 57.75 58.55 60.18 53.59 49.49 48.49 48.42 45.87 46.04 51.57
54.70 57.13 58.67 59.15 59.55 59.82 56.87 55.74 55.90 54.41 54.08 52.62 53.25 53.43 52.31 53.26 54.42 55.04 54.55 56.20 56.68 57.21 57.73 58.65 61.89 58.46 59.18 58.28 59.54 58.56 57.45 57.17 56.77 55.50 56.81 57.17 57.61 52.91 52.44 52.65 47.70 45.77 45.68 43.79
56.30 56.81 54.46 56.00 55.51 57.75 57.26 56.49 55.85 55.21 54.30 53.66 53.05 53.93 53.63 53.51 54.59 54.60 56.36 57.76 57.25 57.23 57.49 58.69 63.20 59.40 59.73 60.03 59.09 57.93 56.97 55.92 57.51 58.67 60.01 58.31 57.65 55.44 54.55 52.88 52.37 50.50 46.96 46.39
53.24 53.48 53.25 53.36 53.63 53.94 54.48 54.44 53.72 52.80 53.01 53.11 54.53 54.70 55.02 53.59 53.86 55.27 58.14 57.75 57.85 58.55 59.05 61.60 61.81 61.96 62.27 62.25 61.40 60.31 58.74 59.67 59.67 59.18 57.82 57.38 58.66 59.01 57.83 55.52 57.21 56.87 56.18 49.12
52.71 52.42 52.56 52.39 52.62 54.12 54.55 54.73 51.77 51.60 53.48 55.78 55.44 56.23 56.82 56.55 55.56 56.67 57.63 57.06 55.35 57.36 60.15 60.83 60.60 59.16 59.46 59.02 57.56 56.96 58.06 58.42 58.79 59.10 58.32 57.30 58.10 57.64 58.54 57.64 57.47 57.27 56.62 53.73
49.79 49.75 52.38 52.43 53.78 54.49 54.39 54.75 55.21 55.21 55.98 55.42 55.11 55.98 56.12 56.02 56.37 56.22 56.39 57.76 59.75 59.91 60.62 60.67 57.98 58.44 59.15 57.51 55.82 57.54 58.18 57.84 57.81 58.82 58.09 56.58 57.38 54.47 54.71 56.46 56.27 53.13 52.12 51.46
53.36 53.66 53.76 53.42 53.94 54.86 56.14 57.38 57.61 57.93 57.58 57.54 57.21 57.20 56.40 55.65 55.59 55.23 57.76 59.86 59.69 60.53 60.74 60.60 60.29 58.21 57.11 56.28 55.22 54.62 55.65 58.90 57.96 56.59 57.45 56.40 55.53 56.26 55.56 56.12 56.77 54.09 50.87 47.45
55.37 55.18 55.95 57.41 57.19 56.61 56.42 57.22 57.69 58.30 58.60 58.63 58.83 57.78 58.46 58.10 57.67 58.81 61.08 59.41 58.01 57.71 58.42 59.41 60.44 58.95 56.97 57.13 56.45 55.38 56.08 55.94 57.48 56.48 55.34 54.62 55.95 56.83 56.62 56.54 55.98 54.88 52.36 47.68
56.83 58.03 58.22 58.45 58.66 57.76 56.91 57.44 57.67 57.50 58.33 58.88 59.04 58.48 57.07 58.10 60.29 59.25 57.98 55.98 56.85 58.77 57.94 58.64 59.42 58.31 56.66 57.05 58.67 56.51 57.29 56.95 56.27 56.61 56.34 56.16 56.21 56.04 54.95 51.70 52.47 49.80 47.89 47.09
57.56 58.13 57.43 57.16 56.48 56.72 56.72 57.10 56.69 56.03 57.27 58.09 57.81 57.19 56.94 57.88 58.56 59.40 56.47 54.42 54.89 56.38 58.41 59.37 58.41 56.74 55.39 55.46 56.02 55.28 55.07 55.20 56.25 56.65 56.12 55.12 54.56 54.94 53.93 49.40 48.48 47.15 46.76 46.78
57.08 56.78 56.22 56.26 55.51 54.68 55.34 55.31 54.55 55.59 56.37 57.21 58.24 58.07 57.36 57.07 56.77 55.71 56.69 54.99 54.67 52.87 57.14 57.41 53.79 54.30 56.02 55.54 54.69 53.40 53.59 54.53 54.67 54.19 53.03 52.81 52.48 50.62 48.73 48.06 46.26 46.61 46.40 45.31
56.76 57.00 56.23 55.20 54.67 54.10 54.03 52.63 52.09 52.82 53.94 55.22 54.51 56.04 54.74 52.98 54.75 54.26 51.74 53.61 54.71 51.87 53.60 49.77 49.95 51.38 51.68 50.40 52.47 53.50 53.09 53.02 52.84 51.53 50.98 50.28 48.50 46.11 44.59 45.16 44.43 43.99 43.66 42.74
56.80 55.85 54.90 55.55 55.20 54.03 51.68 52.13 51.10 51.54 51.75 52.88 53.24 53.36 55.23 50.48 49.31 50.56 49.13 48.70 48.92 50.35 48.66 48.83 48.67 48.84 49.29 47.15 49.09 51.56 50.37 49.99 47.84 46.66 45.56 44.94 44.77 44.38 44.48 44.04 43.11 42.79 42.85 43.13
56.57 55.77 54.79 54.34 53.92 53.15 51.75 50.88 50.37 50.50 52.52 51.89 51.55 52.20 50.38 51.21 49.86 48.63 47.91 46.93 47.31 48.75 48.08 47.98 48.71 49.12 49.44 48.85 48.95 48.51 46.46 45.77 46.66 46.04 45.35 44.88 44.25 44.34 44.46 44.33 44.38 44.04 43.83 43.48
55.79 55.10 54.71 55.42 55.09 55.62 54.34 53.33 50.54 49.30 48.76 48.46 49.02 49.59 49.96 50.06 49.65 49.36 49.07 48.81 47.56 47.26 47.03 49.34 49.34 48.67 48.78 48.73 49.09 48.25 47.00 45.92 45.91 45.56 45.70 45.73 44.83 44.05 43.69 43.36 44.23 44.86 44.49 44.00
55.45 51.17 53.98 54.37 54.62 55.51 54.80 54.32 53.86 52.91 52.64 51.98 50.39 50.08 50.09 50.18 49.31 48.95 48.47 48.48 48.46 47.84 48.87 48.39 47.90 47.95 47.35 48.14 48.72 47.89 46.60 45.17 43.99 46.09 46.70 46.59 46.04 45.87 45.72 45.51 45.57 45.46 45.02 44.64